Hourly Data Report for July 27, 2017

PITT MEADOWS CS
BRITISH COLUMBIA

49°12'29.964" N
122°41'24.076" W
5.00 m
1106178
71775
WMM

Download Data

Hourly Data (July 2017)
Hourly Data Report for July 27, 2017
TIME
LST
Temp Definition
°C
Dew Point Definition
°C
Rel Hum Definition
%
Precip. Amount Definition
mm

Wind Dir Definition
10's deg

Wind Spd Definition
km/h
Visibility Definition
km
Stn Press Definition
kPa
Hmdx Definition


Wind Chill Definition


Weather Definition


00:00 16.4 12.7 79 0.0 10 5   101.62     LegendNANA
01:00 16.9 11.7 71 0.0 15 8   101.64     LegendNANA
02:00 16.0 11.4 74 0.0 15 5   101.67     LegendNANA
03:00 15.1 11.4 78 0.0 10 3   101.68     LegendNANA
04:00 14.2 11.2 82 0.0 11 7   101.72     LegendNANA
05:00 14.0 11.0 82 0.0 10 7   101.82     LegendNANA
06:00 15.3 11.3 77 0.0 11 8   101.90     LegendNANA
07:00 15.3 11.6 78 0.0 12 8   101.93     LegendNANA
08:00 17.5 11.9 70 0.0 13 9   101.96     LegendNANA
09:00 18.6 12.1 66 0.0 14 13   101.98     LegendNANA
10:00 19.4 12.0 62 0.0 14 9   102.00     LegendNANA
11:00 21.0 11.7 55 0.0 13 9   102.00     LegendNANA
12:00 22.1 11.8 52 0.0 16 7   101.98     LegendNANA
13:00 22.7 11.2 48 0.0 20 8   101.98 25   LegendNANA
14:00 23.0 12.3 51 0.0 22 9   101.95 25   LegendNANA
15:00 22.7 11.4 49 0.0 22 9   101.93 25   LegendNANA
16:00 22.5 11.8 51 0.0 22 10   101.89 25   LegendNANA
17:00 21.9 11.3 51 0.0 22 9   101.85     LegendNANA
18:00 21.5 12.0 55 0.0 23 7   101.84     LegendNANA
19:00 20.1 11.2 56 0.0 22 6   101.82     LegendNANA
20:00 18.0 11.7 67 0.0 16 3   101.82     LegendNANA
21:00 16.8 11.5 71 0.0 14 4   101.85     LegendNANA
22:00 15.5 11.2 76 0.0 9 6   101.85     LegendNANA
23:00 15.1 11.1 77 0.0 8 4   101.84     LegendNANA

Notes on Data Quality.

Legend

  • E = Estimated
  • M = Missing
  • NA = Not Available*
  • [empty] = Indicates an unobserved value
Date modified: